This demonstration page uses our WeatherBlox Daily Observations layout. Learn more.

Left ArrowRight Arrow

40.92945, -100.16068

Hourly Observations for September 24, 2017

Temp ( °F °C ) Dew Point ( °F °C ) Humidity (%) Winds ( mph kmh ) Pressure ( in mb ) Visibility ( mi km ) Precip ( " mm )
12:15 am 00:15 Cloudy 58 14.7 56 13.6 93 93 NE 3 6 29.88 1012 10 16 0.00 0.00
12:35 am 00:35 Cloudy 58 14.6 56 13.5 93 93 NE 5 7 29.88 1012 10 16 0.00 0.00
12:55 am 00:55 Cloudy with Heavy Rain 58 14.7 56 13.6 93 93 NNE 3 6 29.88 1012 3 4 0.09 2.29
1:15 am 01:15 Cloudy with Heavy Rain 58 14.6 56 13.6 94 94 ENE 3 6 29.88 1012 5 8 0.11 2.79
1:35 am 01:35 Cloudy with Light Rain 58 14.5 56 13.5 94 94 NE 5 7 29.85 1011 10 16 0.13 3.30
1:55 am 01:55 Cloudy 58 14.5 56 13.5 94 94 NE 5 7 29.85 1011 10 16 0.13 3.30
2:15 am 02:15 Cloudy with Light Rain 58 14.5 56 13.5 94 94 Calm 29.85 1011 10 16 0.01 0.25
2:35 am 02:35 Cloudy with Light Rain 58 14.5 56 13.5 94 94 Calm 29.85 1011 10 16 0.01 0.25
2:55 am 02:55 Cloudy with Drizzle 59 14.8 57 13.9 94 94 Calm 29.85 1011 10 16 0.01 0.25
3:15 am 03:15 Cloudy 59 15 57 14 94 94 Calm 29.80 1009 10 16 0.00 0.00
3:35 am 03:35 Cloudy 60 15.3 58 14.3 94 94 Calm 29.80 1009 10 16 0.00 0.00
3:55 am 03:55 Cloudy 60 15.3 58 14.5 95 95 ENE 8 13 29.80 1009 10 16 0.01 0.25
4:15 am 04:15 Cloudy 59 15 57 14 94 94 E 5 7 29.80 1009 10 16 0.00 0.00
4:35 am 04:35 Cloudy with Drizzle 59 15.1 57 14.1 94 94 ESE 3 6 29.80 1009 10 16 0.00 0.00
4:55 am 04:55 Cloudy 60 15.3 58 14.3 94 94 Calm 29.80 1009 10 16 0.00 0.00
5:15 am 05:15 Cloudy with Rain 60 15.5 58 14.6 94 94 Calm 29.80 1009 10 16 0.00 0.00
5:35 am 05:35 Cloudy with Rain 60 15.7 59 14.9 95 95 SE 3 6 29.80 1009 7 11 0.00 0.00
5:55 am 05:55 Cloudy with Rain 61 16 59 15.1 94 94 Calm 29.80 1009 7 11 0.01 0.25
6:15 am 06:15 Cloudy 61 16.3 60 15.3 94 94 ESE 5 7 29.80 1009 10 16 0.00 0.00
6:35 am 06:35 Cloudy with Light Rain 62 16.8 60 15.8 94 94 SE 8 13 29.80 1009 7 11 0.01 0.25
6:55 am 06:55 Cloudy with Light Rain 63 17.2 61 16.2 94 94 SE 7 11 29.80 1009 4 6 0.07 1.78
7:15 am 07:15 Cloudy with Heavy Rain 63 17.1 61 15.9 93 93 WSW 3 6 29.80 1009 4 6 0.08 2.03
7:35 am 07:35 Cloudy with Rain 61 16.2 59 15.2 94 94 Calm 29.80 1009 5 8 0.15 3.81
7:55 am 07:55 Cloudy with Light Rain 61 16.3 60 15.4 94 94 WNW 5 7 29.83 1010 5 8 0.16 4.06
8:15 am 08:15 Cloudy 61 16 59 15 94 94 WNW 6 9 29.83 1010 7 11 0.00 0.00
8:35 am 08:35 Cloudy with Rain 60 15.3 58 14.5 95 95 WNW 3 6 29.80 1009 7 11 0.01 0.25
8:55 am 08:55 Cloudy with Rain 60 15.3 58 14.5 95 95 W 6 9 29.88 1012 10 16 0.02 0.51
9:15 am 09:15 Cloudy with Drizzle 60 15.3 58 14.5 95 95 W 12 19 29.88 1012 10 16 0.00 0.00
9:35 am 09:35 Cloudy with Rain 58 14.5 56 13.5 94 94 NW 10 17 29.91 1013 7 11 0.01 0.25
9:55 am 09:55 Cloudy with Rain 57 14 56 13.1 94 94 NW 10 17 29.91 1013 7 11 0.04 1.02
10:15 am 10:15 Cloudy with Light Rain 57 13.7 55 12.8 94 94 WNW 10 17 29.91 1013 10 16 0.02 0.51
10:35 am 10:35 Cloudy with Rain 56 13.2 54 12.2 94 94 NW 7 11 29.91 1013 10 16 0.04 1.02
10:55 am 10:55 Cloudy with Light Rain 56 13.1 54 12.1 94 94 N 6 9 29.91 1013 10 16 0.07 1.78
11:15 am 11:15 Cloudy with Light Rain 56 13.2 54 12.3 94 94 N 8 13 29.91 1013 10 16 0.00 0.00
11:35 am 11:35 Cloudy with Light Rain 56 13.1 54 12.1 94 94 N 7 11 29.91 1013 10 16 0.00 0.00
11:55 am 11:55 Cloudy with Rain 55 13 54 12 94 94 NNW 8 13 29.94 1014 10 16 0.02 0.51
12:15 pm 12:15 Cloudy with Light Rain 56 13.1 54 12.1 94 94 NW 12 19 29.94 1014 10 16 0.01 0.25
12:35 pm 12:35 Cloudy 56 13.1 54 12.1 94 94 NNW 9 15 29.94 1014 10 16 0.01 0.25
12:55 pm 12:55 Cloudy 55 13 53 11.9 93 93 NNW 7 11 30.00 1016 10 16 0.01 0.25
1:15 pm 13:15 Cloudy with Light Rain 55 13 53 11.8 92 92 N 7 11 30.00 1016 10 16 0.00 0.00
1:35 pm 13:35 Cloudy with Drizzle 56 13.2 54 12.1 93 93 N 7 11 29.97 1015 10 16 0.01 0.25
1:55 pm 13:55 Cloudy with Drizzle 56 13.1 53 11.9 93 93 N 7 11 30.00 1016 10 16 0.01 0.25
2:15 pm 14:15 Cloudy with Light Rain 56 13.5 54 12.1 91 91 N 8 13 29.97 1015 10 16 0.00 0.00
2:35 pm 14:35 Cloudy with Light Rain 56 13.5 54 12.1 91 91 N 6 9 29.97 1015 10 16 0.01 0.25
2:55 pm 14:55 Cloudy with Drizzle 56 13.4 54 12.1 92 92 N 8 13 29.94 1014 10 16 0.01 0.25
3:15 pm 15:15 Cloudy 56 13.5 54 12.2 92 92 NNE 9 15 29.94 1014 10 16 0.00 0.00
3:35 pm 15:35 Cloudy 56 13.6 54 12.2 91 91 NNE 9 15 29.94 1014 10 16 0.00 0.00
3:55 pm 15:55 Cloudy 57 13.7 55 12.5 93 93 NNE 9 15 29.94 1014 10 16 0.00 0.00
4:15 pm 16:15 Cloudy 57 13.7 54 12.4 92 92 N 6 9 29.94 1014 10 16 0.00 0.00
4:35 pm 16:35 Cloudy with Rain 57 13.8 55 12.5 92 92 N 6 9 29.94 1014 7 11 0.02 0.51
4:55 pm 16:55 Cloudy with Light Rain 56 13.6 55 12.5 93 93 NNE 9 15 29.94 1014 7 11 0.05 1.27
5:15 pm 17:15 Cloudy with Light Rain 57 13.8 55 12.7 93 93 N 6 9 29.94 1014 10 16 0.00 0.00
5:35 pm 17:35 Cloudy 57 13.9 55 12.8 93 93 NNE 8 13 29.94 1014 10 16 0.01 0.25
5:55 pm 17:55 Cloudy with Light Rain 57 13.8 55 12.5 92 92 N 9 15 29.94 1014 10 16 0.01 0.25
6:15 pm 18:15 Cloudy 57 13.9 54 12.2 90 90 N 6 9 29.94 1014 10 16 0.00 0.00
6:35 pm 18:35 Cloudy 57 13.8 54 12 89 89 NNE 7 11 29.94 1014 10 16 0.00 0.00
6:55 pm 18:55 Cloudy with Rain 57 13.8 54 12 89 89 NE 7 11 29.94 1014 10 16 0.00 0.00
7:15 pm 19:15 Cloudy with Light Rain 57 13.7 54 12.2 91 91 NE 7 11 29.94 1014 10 16 0.00 0.00
7:35 pm 19:35 Cloudy 56 13.6 54 12.1 91 91 NE 9 15 29.94 1014 10 16 0.00 0.00
7:55 pm 19:55 Cloudy 56 13.6 54 12.2 91 91 NNE 8 13 29.94 1014 10 16 0.00 0.00
8:15 pm 20:15 Cloudy with Light Rain 56 13.6 54 12.2 91 91 N 6 9 29.94 1014 10 16 0.01 0.25
8:35 pm 20:35 Cloudy with Rain 56 13.5 54 12 91 91 NE 8 13 29.97 1015 7 11 0.06 1.52
8:55 pm 20:55 Cloudy with Nearby Thunderstorms 56 13.3 54 12 92 92 NNE 7 11 29.97 1015 10 16 0.10 2.54
9:15 pm 21:15 Cloudy with Nearby Thunderstorms 56 13.3 54 12 92 92 NNE 5 7 29.97 1015 10 16 0.00 0.00
9:35 pm 21:35 Cloudy with Light Rain 56 13.1 53 11.7 91 91 NNE 10 17 30.00 1016 10 16 0.00 0.00
9:55 pm 21:55 Cloudy with Light Rain 55 13 53 11.5 91 91 NE 8 13 30.00 1016 10 16 0.01 0.25
10:15 pm 22:15 Cloudy with Light Rain 55 12.8 53 11.5 92 92 ENE 7 11 30.03 1017 7 11 0.09 2.29
10:35 pm 22:35 Cloudy with Drizzle 55 12.8 53 11.6 92 92 NNE 7 11 30.00 1016 10 16 0.10 2.54
10:55 pm 22:55 Cloudy with Light Rain 55 12.6 52 11.3 92 92 NNE 8 13 30.00 1016 10 16 0.11 2.79
11:15 pm 23:15 Cloudy with Light Rain 55 12.5 52 11.3 92 92 NE 16 26 29.97 1015 10 16 0.01 0.25
11:35 pm 23:35 Cloudy with Light Rain 54 12.4 52 11 91 91 NNE 12 19 30.00 1016 10 16 0.02 0.51
11:55 pm 23:55 Cloudy with Light Rain 54 12.3 52 11 92 92 NNE 10 17 30.00 1016 10 16 0.02 0.51

Powered by AerisWeather